Location: City of Moscow
(46.7306°N, 116.9989°W)
Time: 11:43:00
(UTC+00:00)

ACS3 Solar Sail - Pass Details

Date: 19 February 2026
Orbit: 887 x 973 km, 97.2° (Epoch: 8 March)

Event Time Altitude Azimuth Distance (km) Brightness Sun altitude
Rises 10:30:02 0° 7° (N) 3,515 5.2 -42.7°
Reaches altitude 10° 10:32:31 10° 3° (N) 2,566 4.3 -42.3°
Enters shadow 10:32:36 11° 2° (N) 2,531 4.3 -42.3°
